Temp_Advection
nan nan nan nan nan nan nan nan nan nan nan nan nan nan nan nan nan nan nan nan nan nan nan nan nan nan nan nan nan nan nan nan nan nan nan nan nan nan nan nan nan nan nan nan nan
nan 1 1 1 1 1 1 0 0 -0 -0 0 0 0 0 0 -0 -1 -1 0 -0 -0 0 -0 -0 0 0 -0 0 0 -0 -1 -1 -0 -0 0 0 0 -0 0 0 -1 -0 0 nan
nan -0 -0 -0 0 0 1 1 0 0 -1 -0 0 0 0 -0 -0 -1 0 1 -0 -0 0 -0 -0 0 -0 -0 -0 0 -1 -1 -0 -0 -0 -1 0 0 -0 1 -1 0 -1 -0 nan
nan -1 -1 -0 0 0 0 1 1 0 -0 -0 0 0 0 -0 -0 -0 0 0 0 0 0 -0 -0 -0 0 -0 -0 -0 -1 -0 -0 -0 -0 -0 -0 0 0 -1 0 0 -0 -0 nan
nan -0 -0 -0 -0 0 0 0 1 0 0 -0 0 0 -0 -0 -0 -0 -0 0 0 0 -0 -0 -0 0 -0 -0 0 -0 -1 -1 0 -0 0 -0 -0 -0 -0 -1 0 0 0 0 nan
nan -0 -0 -0 -0 0 0 0 0 0 0 0 0 0 -0 -1 -0 -0 0 0 0 -0 -0 0 -0 0 -0 0 -0 -0 0 0 0 -0 0 0 -0 0 -0 -0 0 -0 -0 0 nan
nan -0 -0 -0 -0 0 0 -0 0 0 0 0 0 0 -1 -0 0 0 0 0 0 0 0 0 0 0 -0 -0 -1 0 -0 -0 -0 0 0 0 0 -0 -0 0 -0 -0 0 0 nan
nan -1 -1 -1 -1 0 1 0 -0 0 0 0 0 -0 -0 0 0 0 0 0 0 0 0 0 0 -0 -0 -0 -0 0 0 -0 0 -0 0 0 0 -0 1 0 -0 -0 -0 0 nan
nan -1 -1 -1 -1 -0 0 -0 0 0 0 0 -0 -0 -0 0 0 0 0 0 0 0 0 0 0 0 0 0 0 0 0 -0 -0 -1 0 0 0 0 0 0 0 -1 -1 0 nan
nan -1 -1 -0 -0 -0 -0 -0 -0 0 0 -0 -0 -0 -0 0 -0 0 0 -0 -0 -0 0 0 0 0 0 0 -0 0 -0 -0 -1 -0 0 0 0 -0 0 0 0 -0 -1 -0 nan
nan -1 -0 0 0 -0 -0 -0 -0 -0 -0 -0 -0 -0 -0 -0 -0 0 0 0 -0 -0 -0 -0 0 -0 -0 -0 -0 -0 -0 -0 -0 -0 -0 0 0 0 0 0 0 -0 -1 -1 nan
nan -3 -1 -0 0 -0 -0 -0 0 0 -0 0 0 -0 0 -0 -0 -0 0 -0 -0 -0 -0 -0 -0 -1 -0 0 0 0 0 -0 -0 -0 -0 -0 0 -0 0 0 -0 0 -0 -1 nan
nan -3 -1 -0 -0 -0 -0 -0 -0 -0 -0 -0 0 -0 -0 0 -0 -0 -0 -0 -0 -0 -0 -0 0 0 -0 -0 0 0 -0 -0 -0 -1 0 -0 -0 0 0 0 0 0 0 -0 nan
nan -1 -1 -0 -0 -0 -0 -0 -0 0 0 -0 0 -0 -0 -0 -0 -0 -0 -0 0 -0 -0 0 -0 -0 -0 -0 -0 -0 0 0 0 0 0 0 -0 0 -0 0 0 0 0 0 nan
nan 0 0 -0 -0 -0 -0 -0 -0 -0 0 -0 0 0 -0 -0 -0 0 0 -0 -0 -0 -0 -0 -0 -0 -0 -0 -0 -0 -0 -0 0 0 -0 0 0 0 -0 0 -0 0 0 0 nan
nan 0 -0 -0 -0 -0 -0 -0 0 0 -0 0 -0 -0 -0 -0 -0 -0 -0 -1 -0 -0 -0 -0 -0 -0 -0 -0 -0 -0 -0 -0 0 -0 0 -0 -0 0 0 -0 0 0 0 1 nan
nan -0 -1 -1 -0 0 0 0 0 -0 -0 0 -0 0 -0 -0 -0 -0 -1 -1 -0 -0 0 0 -0 -0 -0 -0 0 0 -0 -0 -0 0 -0 0 0 0 -0 -0 -0 0 1 0 nan
nan 0 -0 1 1 0 0 -0 -1 0 -0 0 0 -0 -0 -0 -0 -0 -1 -0 -0 -0 -0 -0 0 -0 -0 -0 -0 -0 0 -0 -0 0 -0 0 1 -0 0 0 -0 -0 0 0 nan
nan 0 0 1 0 -0 -1 -1 0 -0 -0 -0 -0 -0 -0 -0 -0 -0 -1 0 0 -0 -0 -0 0 0 0 0 -0 -0 0 -0 -0 -0 -0 0 -0 -0 0 -0 -0 -0 -0 -0 nan
nan -0 -0 0 -0 -1 -1 -1 0 0 -0 -0 -0 -1 -0 -0 -0 -0 -0 0 0 0 1 0 -0 -0 0 0 -0 0 -0 -0 0 -0 -0 -0 -0 -0 -0 -0 -0 -0 -0 -0 nan
nan -0 0 -0 -1 -1 -0 0 0 0 -0 -0 -0 -0 -0 -0 -0 -0 -0 0 0 0 0 0 0 -0 -0 -1 -0 -0 -0 -0 0 -0 0 -0 -0 -0 -0 0 -0 -0 -0 -0 nan
nan 0 -0 -1 -1 -0 -0 0 -0 -0 -0 -0 -0 -0 0 -0 -0 -0 -0 0 -0 -0 -0 -0 0 -0 -0 -0 0 -0 -0 -0 0 -0 0 -0 -0 -0 -0 0 -0 -0 -0 -0 nan
nan -0 0 -0 -0 -0 -0 -0 -0 0 -0 -0 -0 0 -0 -0 -0 -0 -0 0 -0 -0 -0 -0 -0 0 -0 -0 -0 -0 -0 0 -0 -0 -0 -0 -0 -0 -0 -0 -0 -0 -0 -0 nan
nan -0 -0 -1 -0 -0 -0 -0 -0 -0 0 -0 -0 -0 -0 -0 -0 -0 -0 0 0 0 0 -0 -0 -0 -0 -0 0 -0 -0 0 0 0 -0 -0 -0 -0 -1 0 -0 -0 -0 -0 nan
nan -0 -0 -0 -0 -0 -0 -0 -0 -0 -0 -1 -0 -1 -0 -0 -0 -0 -0 -0 0 -0 -0 -0 0 0 0 -0 -0 -0 -0 -1 -0 -0 0 0 -0 -0 -0 -0 -0 -0 -0 -0 nan
nan 0 -0 -0 -0 -0 -0 -0 -0 0 -0 -0 -0 -0 -1 -0 -0 -0 -0 -0 -0 -1 -0 -0 -0 -0 -0 0 -1 -0 -0 -0 -0 0 -0 -0 -0 0 0 -0 -0 -0 -0 0 nan
nan nan nan nan nan nan nan nan nan nan nan nan nan nan nan nan nan nan nan nan nan nan nan nan nan nan nan nan nan nan nan nan nan nan nan nan nan nan nan nan nan nan nan nan nan
Wind_Speed
21 20 20 20 19 19 19 17 16 17 14 14 13 13 13 10 14 16 19 14 9 16 17 18 16 16 16 17 19 17 7 16 17 12 8 6 4 11 6 0 5 5 8 12 9
22 23 23 22 21 20 19 19 17 14 15 14 13 13 11 12 12 20 18 15 19 17 19 18 21 20 18 19 12 8 10 11 10 9 7 6 12 10 6 6 4 13 11 11 5
24 25 24 23 21 20 19 17 16 14 15 14 13 12 10 8 11 6 8 24 15 17 19 16 17 18 17 16 16 10 13 12 6 7 7 8 6 3 10 4 9 10 16 11 8
26 28 27 26 24 21 19 17 14 13 14 14 12 10 10 2 5 3 7 18 15 15 13 17 20 17 10 11 19 9 13 21 22 5 4 3 1 3 5 8 7 12 14 11 10
28 28 29 28 26 24 21 18 14 13 14 13 11 8 3 7 13 8 9 7 11 15 13 18 21 16 13 8 12 13 12 12 13 5 1 7 2 4 4 11 5 5 9 10 13
29 30 31 30 29 26 22 19 16 14 13 12 11 9 9 12 8 5 4 7 7 10 11 14 11 17 10 14 9 2 8 10 13 6 6 4 6 4 9 8 5 8 10 10 7
31 32 33 33 31 27 23 19 17 16 13 10 8 10 12 11 2 4 8 8 10 9 11 11 13 8 4 5 12 8 6 5 7 9 5 10 9 10 11 8 9 11 11 9 6
33 33 34 33 31 27 21 18 17 14 9 5 7 8 6 6 7 8 8 8 10 9 8 8 7 4 1 3 3 2 4 5 4 8 7 7 5 6 21 16 14 14 12 8 5
37 35 35 33 29 25 17 15 11 7 4 6 7 7 6 2 7 8 8 5 6 7 9 7 8 2 2 1 2 6 4 9 8 14 10 9 2 8 6 6 13 18 14 8 6
37 36 37 33 24 19 13 6 5 4 6 4 2 4 5 4 9 6 8 7 6 10 10 4 3 3 3 4 6 7 9 8 8 5 10 13 8 7 6 9 11 16 16 10 5
37 39 39 33 21 15 7 2 3 5 11 7 6 3 8 8 7 5 8 6 7 6 4 7 3 7 9 10 7 7 5 6 9 6 3 6 5 6 7 4 7 11 17 12 6
39 41 37 26 17 11 2 4 4 1 4 14 1 6 9 10 8 6 5 7 7 5 7 4 6 8 8 7 1 4 7 6 7 6 2 4 6 9 6 3 3 7 9 16 11
39 41 27 15 11 7 2 5 8 4 4 6 4 4 3 2 8 10 4 1 4 7 7 5 4 5 1 1 1 5 3 5 6 8 2 4 5 5 4 6 3 2 3 12 11
40 29 20 14 7 9 2 9 9 4 2 3 4 6 3 7 7 7 9 4 1 3 3 3 6 3 2 2 4 8 6 8 6 4 3 7 4 10 8 8 4 4 3 6 9
27 26 21 17 10 7 12 12 1 2 1 4 5 5 13 11 2 13 15 5 8 6 3 5 9 7 1 4 6 2 8 6 3 5 1 6 1 5 9 5 6 10 9 7 6
23 32 25 19 6 12 12 2 1 3 5 5 6 4 12 17 12 5 7 10 5 3 4 6 7 4 5 8 4 5 4 5 4 2 3 10 6 4 2 3 5 12 9 10 4
23 39 25 20 17 15 7 5 2 7 6 7 6 9 11 10 6 9 13 12 6 4 2 4 5 4 6 5 5 2 2 2 1 4 7 8 8 2 3 6 4 11 11 8 8
22 29 29 29 19 13 11 3 11 11 12 5 4 11 6 7 9 13 7 6 11 8 3 3 2 6 7 4 4 3 4 3 4 3 3 5 4 2 4 11 15 14 13 8 6
20 27 33 30 23 16 9 10 7 8 9 8 4 4 5 7 4 5 10 5 6 9 5 5 3 3 3 3 4 3 2 1 4 3 2 3 4 3 5 5 9 9 9 8 5
9 27 39 32 25 29 16 15 7 9 7 8 8 11 6 11 5 5 6 8 6 7 8 1 1 3 3 3 1 2 1 2 1 1 3 2 4 4 1 5 4 6 10 7 4
15 9 35 13 32 23 9 6 10 15 10 9 11 8 8 3 7 3 4 5 8 7 5 4 3 1 3 5 3 5 3 4 1 2 1 2 3 5 8 2 7 10 11 8 8
29 8 22 26 18 8 11 5 6 15 10 7 9 10 8 8 7 4 5 6 13 12 5 4 0 2 1 1 1 1 1 3 2 4 3 2 2 4 6 8 10 9 8 7 7
14 18 30 20 9 10 10 8 14 10 12 5 9 6 6 5 4 7 5 8 10 9 4 5 1 0 3 4 2 4 2 2 2 1 3 1 3 4 6 7 8 9 8 7 7
6 3 9 23 23 9 9 12 5 13 16 8 10 8 6 8 7 5 4 3 6 6 7 6 3 5 2 2 1 4 5 5 2 2 4 3 3 8 10 2 6 7 8 7 6
8 4 10 5 9 10 12 8 12 7 9 20 8 13 5 5 4 5 7 2 4 12 3 3 2 4 3 2 5 7 6 8 6 2 3 4 2 3 6 6 10 7 6 5 4
5 3 8 12 14 11 9 9 9 6 8 5 7 8 10 5 3 1 4 6 5 7 4 5 1 1 2 3 9 9 9 9 4 5 3 4 2 2 8 4 2 2 2 3 3
13 10 5 10 8 4 5 7 9 5 8 9 9 4 6 4 6 4 4 3 2 2 5 2 3 3 3 5 11 5 4 7 4 5 1 7 5 14 10 13 6 4 5 8 10
Wind_Direction
354 347 340 335 328 321 310 303 299 301 295 292 291 286 290 273 276 280 264 237 279 249 192 188 185 189 197 210 216 219 230 244 243 240 257 129 127 156 173 213 141 116 103 150 184
352 348 344 338 331 324 312 305 292 292 290 286 283 285 280 269 274 272 258 242 235 223 191 194 194 188 199 208 210 211 224 252 237 255 269 228 150 165 118 207 168 111 120 157 155
349 346 341 337 329 324 316 304 292 283 286 283 285 280 264 274 290 240 254 232 240 208 190 200 199 194 212 209 192 219 238 236 281 37 21 344 125 210 143 204 42 150 139 140 152
349 346 340 333 327 319 314 308 293 282 281 277 277 268 262 226 269 290 310 220 211 182 188 208 213 191 216 222 215 255 241 246 271 43 25 327 36 205 174 106 114 114 120 144 157
349 346 343 336 326 315 308 304 298 284 283 279 273 247 234 224 258 280 304 200 186 170 199 207 214 201 233 241 237 237 257 279 270 95 161 305 282 308 102 116 130 114 118 136 172
347 346 343 338 328 319 303 297 291 285 279 274 264 217 210 250 247 254 210 145 178 192 197 205 217 218 256 258 248 287 272 263 267 258 213 229 281 237 114 131 141 114 117 144 177
347 344 341 336 329 317 304 289 288 281 274 268 239 203 227 239 280 198 162 158 163 193 210 206 227 237 264 301 316 265 306 289 278 224 179 203 249 250 236 179 148 139 140 167 177
344 341 338 333 327 317 302 288 291 279 266 238 194 200 253 199 206 179 184 182 187 185 162 183 199 257 316 22 347 269 266 256 198 220 235 191 227 214 234 167 156 154 150 168 172
342 342 339 336 331 325 312 305 292 267 201 170 183 201 257 201 150 160 141 142 175 178 181 181 185 200 198 198 239 217 257 220 248 233 197 172 227 150 94 179 191 160 151 162 166
341 340 340 338 334 333 327 332 345 115 131 160 237 204 208 165 150 145 142 134 116 123 105 116 160 165 208 166 209 215 216 243 267 270 194 189 210 123 144 188 231 160 146 140 140
338 337 339 336 328 325 320 5 180 195 180 193 159 119 115 127 112 107 130 131 139 152 156 180 189 199 195 211 227 276 280 291 301 35 40 211 267 171 135 189 210 149 143 141 144
338 337 337 331 325 325 283 249 329 87 263 230 146 94 130 140 115 61 142 187 180 196 201 126 232 232 224 229 197 263 256 269 286 299 90 311 282 114 132 108 69 150 164 151 147
343 342 347 343 348 37 344 283 283 288 246 58 158 101 98 304 45 20 30 243 212 222 198 189 79 70 64 320 262 268 252 269 260 305 106 345 283 241 165 119 143 100 165 157 151
348 359 6 3 26 344 39 315 315 196 232 53 81 29 14 123 60 34 19 7 216 342 263 215 75 43 47 284 287 248 228 220 247 299 225 154 265 232 167 152 139 190 181 134 159
12 15 8 7 352 3 319 322 337 134 205 333 46 50 62 71 129 17 22 17 41 17 342 47 45 16 21 31 352 34 358 325 254 197 0 270 281 238 127 171 180 190 185 196 186
29 13 8 12 9 322 329 348 97 236 69 32 37 50 65 50 36 19 41 36 43 330 57 101 75 49 346 317 280 328 316 288 287 129 233 215 185 251 141 294 151 161 182 187 164
38 16 13 8 353 358 10 348 164 31 4 18 19 74 70 56 48 58 70 53 34 8 98 158 46 70 8 320 205 139 348 301 277 208 233 182 201 217 43 355 322 149 147 153 189
20 9 19 15 9 14 18 24 54 41 21 21 27 70 59 3 54 26 61 39 22 4 7 0 128 8 320 33 341 308 168 183 233 202 270 164 212 99 43 41 63 97 118 129 159
26 22 30 20 11 22 51 50 31 12 344 328 291 34 80 39 70 83 72 30 39 21 54 8 87 143 54 16 354 331 30 253 332 203 227 152 105 108 88 73 78 91 106 106 119
43 31 27 27 61 71 72 81 67 19 335 12 54 19 66 15 58 68 43 4 15 35 326 325 309 306 101 150 349 159 290 35 300 281 257 295 82 45 47 98 97 92 92 98 101
68 35 20 19 55 55 60 55 47 29 37 32 23 42 55 54 39 68 50 40 15 345 296 0 118 249 100 17 346 356 26 344 13 236 231 308 75 7 329 60 82 64 80 89 92
51 63 14 47 63 47 51 27 28 26 42 53 37 45 37 17 29 80 64 35 2 350 5 64 274 31 97 274 3 43 22 16 72 358 323 192 99 350 310 73 95 90 89 89 98
60 62 36 47 58 60 86 84 52 44 34 31 32 25 32 17 78 50 71 18 18 16 24 338 12 222 6 336 233 75 20 187 247 264 353 337 66 329 338 88 107 111 103 99 98
56 42 26 43 53 59 54 43 70 45 41 51 31 33 24 53 58 46 41 63 25 19 6 343 335 81 113 183 230 50 41 1 104 34 337 43 334 3 351 63 106 119 122 114 107
59 59 45 24 41 58 60 35 45 24 49 21 31 34 33 32 49 30 4 32 110 6 49 60 67 81 104 117 92 70 69 60 64 240 62 295 16 292 317 351 45 100 123 132 126
95 81 63 53 61 45 27 35 33 29 16 13 23 51 48 69 117 300 4 17 43 318 34 346 302 252 151 140 99 70 53 64 72 5 5 1 89 331 341 337 40 26 9 204 202
83 77 100 31 32 54 10 22 27 14 50 33 348 59 50 39 16 21 52 81 135 26 338 61 21 16 141 159 142 94 335 88 80 25 208 37 10 8 7 5 19 60 24 3 359
Height
1477 1475 1472 1468 1464 1462 1461 1458 1457 1456 1454 1454 1452 1450 1450 1450 1450 1449 1447 1447 1449 1450 1451 1454 1456 1461 1464 1465 1467 1469 1469 1458 1457 1459 1455 1451 1454 1458 1463 1468 1471 1473 1476 1480 1481
1476 1472 1468 1465 1462 1458 1456 1455 1454 1452 1450 1450 1449 1448 1449 1449 1447 1444 1444 1444 1445 1448 1451 1455 1455 1457 1460 1462 1462 1463 1462 1454 1452 1451 1452 1449 1453 1457 1463 1469 1472 1474 1478 1480 1481
1474 1469 1467 1463 1459 1456 1454 1452 1449 1449 1448 1447 1446 1447 1447 1447 1446 1437 1436 1439 1442 1445 1450 1455 1458 1459 1458 1457 1456 1457 1450 1451 1449 1451 1454 1454 1455 1458 1462 1468 1473 1473 1477 1481 1482
1472 1469 1464 1460 1456 1454 1451 1448 1446 1446 1445 1443 1443 1443 1444 1446 1446 1435 1436 1437 1439 1442 1448 1452 1453 1456 1458 1454 1452 1453 1450 1453 1450 1453 1455 1457 1458 1460 1463 1471 1473 1475 1479 1481 1484
1472 1468 1463 1459 1454 1450 1447 1445 1442 1442 1441 1440 1440 1440 1441 1444 1439 1435 1435 1436 1439 1441 1444 1448 1451 1453 1453 1451 1453 1452 1452 1450 1451 1453 1456 1459 1460 1463 1466 1469 1473 1475 1479 1482 1482
1470 1466 1461 1456 1450 1446 1442 1440 1438 1437 1436 1436 1436 1437 1439 1441 1436 1435 1435 1437 1440 1443 1444 1446 1448 1452 1452 1451 1451 1450 1451 1451 1453 1454 1456 1460 1462 1465 1467 1469 1473 1475 1479 1480 1482
1469 1463 1457 1452 1446 1441 1437 1435 1434 1433 1432 1431 1434 1435 1437 1438 1435 1435 1436 1437 1439 1443 1444 1447 1449 1451 1451 1453 1450 1451 1455 1453 1453 1453 1456 1461 1464 1463 1465 1468 1471 1475 1478 1479 1482
1466 1461 1454 1447 1441 1435 1432 1430 1429 1429 1429 1429 1433 1434 1434 1431 1433 1434 1436 1437 1440 1441 1442 1444 1447 1451 1451 1453 1453 1454 1457 1462 1450 1453 1454 1459 1464 1462 1464 1466 1471 1474 1477 1480 1482
1462 1456 1450 1443 1437 1431 1428 1427 1426 1426 1428 1430 1433 1434 1433 1431 1433 1434 1436 1437 1440 1441 1443 1446 1451 1454 1455 1456 1458 1455 1458 1454 1453 1447 1451 1457 1459 1463 1464 1467 1470 1473 1477 1480 1482
1458 1452 1445 1439 1434 1429 1427 1425 1425 1427 1429 1431 1433 1437 1434 1432 1433 1434 1437 1439 1442 1443 1444 1449 1453 1455 1456 1458 1461 1455 1456 1452 1450 1442 1442 1452 1457 1461 1464 1467 1470 1472 1476 1481 1483
1455 1447 1441 1434 1429 1427 1426 1425 1428 1428 1427 1426 1428 1429 1431 1433 1435 1436 1438 1441 1443 1444 1445 1449 1454 1453 1451 1453 1453 1453 1454 1454 1449 1449 1446 1449 1453 1459 1464 1467 1468 1471 1475 1480 1484
1450 1444 1436 1430 1425 1424 1425 1425 1424 1426 1425 1425 1428 1430 1431 1434 1436 1438 1439 1442 1442 1443 1443 1451 1453 1447 1445 1445 1449 1451 1454 1455 1450 1447 1452 1454 1457 1464 1466 1468 1469 1472 1475 1478 1482
1447 1438 1431 1427 1424 1424 1425 1425 1425 1425 1426 1429 1430 1432 1436 1437 1439 1441 1441 1440 1440 1441 1441 1447 1446 1444 1445 1446 1451 1453 1454 1457 1457 1450 1453 1457 1462 1460 1467 1468 1470 1473 1476 1478 1482
1444 1436 1431 1429 1428 1427 1426 1425 1424 1424 1424 1436 1434 1437 1438 1438 1444 1444 1443 1444 1441 1440 1439 1443 1449 1448 1449 1451 1452 1454 1451 1455 1458 1462 1472 1460 1482 1455 1462 1468 1472 1475 1476 1479 1483
1443 1439 1434 1429 1430 1428 1428 1425 1424 1426 1429 1443 1440 1442 1441 1443 1448 1448 1446 1444 1449 1444 1446 1455 1454 1455 1452 1459 1459 1456 1454 1454 1454 1464 1469 1463 1474 1457 1455 1469 1472 1474 1478 1482 1485
1447 1442 1435 1432 1431 1429 1426 1425 1426 1428 1441 1447 1444 1444 1447 1449 1451 1451 1450 1450 1451 1449 1449 1457 1458 1462 1465 1461 1460 1459 1457 1456 1457 1469 1479 1463 1470 1465 1467 1475 1467 1473 1479 1482 1486
1449 1445 1438 1435 1432 1429 1427 1428 1426 1442 1448 1456 1454 1451 1453 1454 1456 1455 1457 1462 1466 1467 1454 1456 1464 1465 1466 1463 1457 1461 1467 1492 1488 1474 1471 1451 1461 1471 1478 1476 1472 1473 1479 1484 1487
1454 1450 1445 1440 1436 1432 1431 1432 1452 1461 1460 1457 1455 1456 1459 1460 1462 1460 1461 1472 1471 1469 1467 1472 1468 1476 1473 1473 1475 1470 1478 1490 1482 1492 1469 1448 1464 1478 1482 1480 1477 1478 1481 1486 1488
1460 1457 1449 1443 1438 1434 1435 1453 1478 1473 1472 1465 1457 1454 1460 1462 1463 1467 1476 1480 1480 1478 1486 1488 1479 1476 1475 1475 1476 1474 1483 1476 1476 1473 1461 1456 1479 1484 1484 1484 1485 1485 1487 1489 1490
1463 1459 1453 1451 1446 1442 1445 1468 1478 1477 1473 1465 1463 1463 1469 1468 1467 1471 1480 1485 1482 1482 1479 1486 1490 1476 1474 1476 1477 1479 1477 1478 1489 1495 1493 1469 1462 1485 1485 1488 1489 1489 1491 1491 1492
1464 1462 1466 1461 1455 1452 1467 1478 1480 1479 1476 1475 1474 1475 1475 1473 1473 1478 1487 1490 1486 1483 1481 1481 1493 1479 1474 1496 1498 1489 1486 1488 1482 1472 1488 1498 1489 1499 1497 1490 1492 1494 1494 1494 1494
1473 1472 1477 1473 1463 1472 1482 1484 1485 1484 1481 1482 1482 1483 1482 1479 1481 1483 1491 1490 1489 1486 1484 1484 1490 1492 1502 1497 1494 1495 1502 1500 1498 1484 1474 1485 1499 1500 1498 1494 1495 1497 1498 1497 1497
1481 1484 1484 1477 1478 1483 1487 1489 1490 1488 1487 1486 1487 1487 1484 1485 1487 1486 1490 1493 1492 1490 1492 1490 1490 1491 1505 1502 1494 1500 1502 1506 1508 1501 1486 1487 1499 1501 1497 1498 1498 1499 1499 1500 1499
1486 1489 1490 1488 1489 1490 1491 1493 1492 1493 1492 1491 1492 1490 1487 1487 1488 1494 1493 1494 1493 1492 1491 1490 1494 1498 1510 1508 1501 1508 1505 1508 1511 1499 1507 1510 1508 1508 1504 1500 1500 1500 1501 1501 1501
1491 1499 1500 1501 1497 1496 1496 1499 1499 1498 1496 1495 1495 1495 1495 1502 1493 1498 1496 1492 1494 1492 1492 1494 1505 1497 1498 1495 1497 1501 1501 1511 1520 1519 1513 1515 1515 1513 1507 1503 1501 1502 1502 1502 1503
1497 1500 1502 1502 1502 1502 1501 1505 1503 1503 1503 1502 1501 1500 1500 1506 1509 1513 1505 1502 1504 1497 1495 1496 1500 1493 1498 1492 1496 1503 1502 1506 1510 1518 1518 1510 1511 1508 1505 1504 1503 1503 1503 1502 1502
1502 1503 1503 1507 1507 1507 1512 1510 1508 1504 1507 1507 1504 1502 1505 1508 1507 1506 1505 1505 1504 1504 1503 1503 1508 1504 1495 1491 1500 1504 1515 1512 1519 1519 1518 1517 1515 1511 1508 1505 1502 1503 1503 1503 1503